Regional Weather Roundup
Issued by NWS Jackson, KY

Home | Current Version | Previous Version | Text Only | Print | Product List | Glossary Off
Versions: 1 2 3 4 5 6 7 8 9 10 11 12 13 14 15 16 17 18 19 20 21 22 23 24 25 26 27 28 29 30 31 32 33 34 35 36 37 38 39 40 41 42 43 44 45 46 47 48 49 50

610
ASUS43 KJKL 090410
RWRJKL

EAST KENTUCKY HOURLY WEATHER ROUNDUP
NATIONAL WEATHER SERVICE JACKSON KY
1100 PM EST MON FEB 08 2016

NOTE: "FAIR" INDICATES FEW OR NO CLOUDS BELOW 12,000 FEET WITH
NO SIGNIFICANT WEATHER AND/OR OBSTRUCTIONS TO VISIBILITY.

* THESE REPORTS ARE NOT UNDER NWS QUALITY CONTROL AND MAY NOT
  REPORT WEATHER SUCH AS PRECIPITATION AND FOG.

KYZ079-080-083-085-087-088-110-112-115-119-120-090500
...EASTERN KENTUCKY...

CITY           SKY/WX    TMP DP  RH WIND       PRES   REMARKS
JACKSON        LGT SNOW  28  23  81 W9G18     29.71S WCI  19
LONDON         LGT SNOW  27  22  81 W13       29.76F WCI  16
SOMERSET*      CLOUDY    27  19  74 W10G17    29.82S WCI  17
MONTICELLO*    FLURRIES  27  23  85 W14       29.83S WCI  16
WILLIAMSBURG*  CLOUDY    27  25  93 CALM      29.78F
MIDDLESBORO*   CLOUDY    30  22  72 CALM      29.77S
HARLAN APT*    CLOUDY    30  27  86 SW5       29.72S WCI  25
HAZARD APT*    LGT SNOW N/A N/A N/A W6        29.72S
BLACK MTN*       N/A     21  21 100 N5          N/A  WCI  15
BIG SANDY*     CLOUDY    32  28  85 W8        29.69S WCI  25
MOREHEAD APT*  LGT SNOW  28  25  86 W8G17     29.75S WCI  20
$$

KYZ035-036-041-042-044-050-067-078-099-090500
...CENTRAL KENTUCKY...

CITY           SKY/WX    TMP DP  RH WIND       PRES   REMARKS
MT STERLING*   FLURRIES  27  25  93 NW9G22    29.76S WCI  17
DANVILLE*      CLOUDY    27  23  86 W10       29.79F WCI  17
RICHMOND*      CLOUDY    27  21  80 W13       29.77F WCI  16
LEXINGTON      CLOUDY    26  21  81 W14       29.76F WCI  14
FRANKFORT      LGT SNOW  25  20  81 W6        29.77S WCI  18
$$

KYZ091>093-OHZ055-061-077-WVZ005-015-034-035-042-090500
...SOUTHERN OHIO/WEST VIRGINIA...

CITY           SKY/WX    TMP DP  RH WIND       PRES   REMARKS
COVINGTON      LGT SNOW  23  20  88 W17       29.74R VSB 3/4 WCI   9
COLUMBUS       LGT SNOW  32  32 100 W8        29.62F FOG     WCI  25
DAYTON         LGT SNOW  26  23  88 W15G22    29.68F FOG     WCI  14
WILMINGTON     LGT SNOW  27  24  89 W13       29.67S FOG     WCI  16
HUNTINGTON     CLOUDY    34  28  79 W7        29.67F WCI  28
CHARLESTON     CLOUDY    34  30  85 SW9       29.65F WCI  27
PINEVILLE*     LGT SNOW  32  29  90 MISG      29.68F VSB 1
BECKLEY        MOCLDY    28  23  81 W7        29.59F WCI  21
$$

VAZ002-007-008-TNZ017-027-036-066-071-090500
...SOUTHWEST VIRGINIA/EAST TENNESSEE...

CITY           SKY/WX    TMP DP  RH WIND       PRES   REMARKS
BRISTOL        FLURRIES  32  28  85 W7        29.69F WCI  26
KNOXVILLE      FLURRIES  32  23  69 W12       29.80R WCI  23
OAK RIDGE      CLOUDY    32  21  64 W7        29.82R WCI  26
CROSSVILLE     FLURRIES  25  18  74 W13G23    29.78F WCI  14
NASHVILLE      LGT SNOW  30  24  78 NW9       29.90S WCI  22
$$

...KEY TO REMARKS...
VSB - VISIBILITY IN MILES
WCI - WIND CHILL INDEX
HX  - HEAT INDEX

$$




USA.gov is the U.S. government's official web portal to all federal, state and local government web resources and services.